This demonstration page uses our WeatherBlox Daily Observations layout. Learn more.

Left ArrowRight Arrow

34.74481, -87.66753

Hourly Observations for February 22, 2018

Temp ( °F °C ) Dew Point ( °F °C ) Humidity (%) Winds ( mph kmh ) Pressure ( in mb ) Visibility ( mi km ) Precip ( " mm )
12:53 am 00:53 Mostly Cloudy 59 15 56 13.3 90 90 ESE 3 6 30.24 1024 9 14 0.00 0.00
1:16 am 01:16 Partly Cloudy 59 15 57 13.9 93 93 ESE 5 7 30.24 1024 10 16 0.00 0.00
1:53 am 01:53 Partly Cloudy 59 15 56 13.3 90 90 SW 3 6 30.24 1024 10 16 0.00 0.00
2:53 am 02:53 Mostly Cloudy 69 20.6 63 17.2 81 81 S 10 17 30.24 1024 10 16 0.00 0.00
3:24 am 03:24 Cloudy with Heavy Rain 64 17.8 60 15.6 87 87 WSW 14 22 30.30 1026 3 4 0.11 2.79
3:28 am 03:28 Cloudy with Heavy Rain 64 17.8 60 15.6 87 87 WSW 13 20 30.30 1026 2 3 0.18 4.57
3:31 am 03:31 Cloudy with Heavy Rain 64 17.8 60 15.6 87 87 W 13 20 30.27 1025 2 3 0.20 5.08
3:43 am 03:43 Cloudy with Rain 64 17.8 60 15.6 87 87 WSW 16 26 30.30 1026 5 8 0.23 5.84
3:50 am 03:50 Cloudy with Heavy Rain 64 18 61 16 88 88 W 18 30 30.30 1026 4 6 0.27 6.86
3:53 am 03:53 Cloudy with Heavy Rain 64 17.8 60 15.6 87 87 W 24 39 30.29 1026 3 4 0.30 7.62
3:58 am 03:58 Cloudy with Nearby Thunderstorms 64 17.8 60 15.6 87 87 W 20 31 30.30 1026 2 3 0.09 2.29
4:11 am 04:11 Cloudy with Heavy Rain 64 17.8 60 15.6 87 87 W 15 24 30.30 1026 2 3 0.23 5.84
4:26 am 04:26 Cloudy with Heavy Rain 63 17.2 60 15.6 90 90 SW 12 19 30.30 1026 2 3 0.38 9.65
4:28 am 04:28 Cloudy with Heavy Rain 63 17.2 60 15.6 90 90 SW 10 17 30.30 1026 2 3 0.39 9.91
4:38 am 04:38 Cloudy with Rain 63 17.2 60 15.6 90 90 WSW 6 9 30.30 1026 3 5 0.43 10.92
4:48 am 04:48 Cloudy with Heavy Rain 63 17 61 16 94 94 SSW 12 19 30.30 1026 2 3 0.57 14.48
4:53 am 04:53 Cloudy with Heavy Rain 63 17.2 60 15.6 90 90 SW 10 17 30.30 1026 2 3 0.59 14.99
5:01 am 05:01 Cloudy with Heavy Rain 63 17.2 60 15.6 90 90 SSW 10 17 30.30 1026 3 5 0.05 1.27
5:53 am 05:53 Cloudy with Thunderstorms 63 17.2 61 16.1 93 93 S 8 13 30.30 1026 8 13 0.18 4.57
6:11 am 06:11 Cloudy with Rain 63 17.2 61 16.1 93 93 S 6 9 30.30 1026 5 8 0.04 1.02
6:33 am 06:33 Cloudy with Strong Thunderstorms 64 17.8 61 16.1 90 90 S 5 7 30.33 1027 4 6 0.13 3.30
6:49 am 06:49 Cloudy with Strong Thunderstorms 64 18 61 16 88 88 S 10 17 30.33 1027 2 3 0.30 7.62
6:53 am 06:53 Cloudy with Strong Thunderstorms 64 17.8 61 16.1 90 90 SSW 9 15 30.32 1027 1 2 0.34 8.64
6:59 am 06:59 Cloudy with Nearby Thunderstorms 64 17.8 61 16.1 90 90 SSW 8 13 30.33 1027 3 4 0.02 0.51
7:06 am 07:06 Cloudy with Nearby Thunderstorms 64 17.8 61 16.1 90 90 SSW 8 13 30.33 1027 5 8 0.03 0.76
7:38 am 07:38 Cloudy with Heavy Rain 64 17.8 61 16.1 90 90 S 9 15 30.33 1027 3 4 0.10 2.54
7:50 am 07:50 Cloudy with Heavy Rain 64 18 63 17 94 94 S 10 17 30.33 1027 2 3 0.18 4.57
7:53 am 07:53 Cloudy with Rain 64 17.8 62 16.7 93 93 S 10 17 30.32 1027 2 3 0.19 4.83
8:02 am 08:02 Cloudy with Rain 65 18.3 62 16.7 90 90 SSW 8 13 30.33 1027 3 5 0.02 0.51
8:17 am 08:17 Cloudy with Heavy Rain 65 18.3 62 16.7 90 90 S 7 11 30.33 1027 2 3 0.08 2.03
8:37 am 08:37 Cloudy with Rain 64 17.8 62 16.7 93 93 SE 3 6 30.33 1027 3 5 0.20 5.08
8:50 am 08:50 Cloudy with Heavy Rain 64 18 63 17 94 94 SSE 7 11 30.36 1028 2 2 0.28 7.11
8:53 am 08:53 Cloudy with Heavy Rain 64 17.8 62 16.7 93 93 SSE 6 9 30.33 1027 1 2 0.34 8.64
9:03 am 09:03 Cloudy with Light Rain 64 17.8 62 16.7 93 93 SE 7 11 30.33 1027 3 4 0.02 0.51
9:09 am 09:09 Cloudy with Rain 65 18.3 62 16.7 90 90 ESE 7 11 30.33 1027 5 8 0.03 0.76
9:31 am 09:31 Cloudy 65 18.3 62 16.7 90 90 E 8 13 30.33 1027 10 16 0.04 1.02
9:37 am 09:37 Cloudy with Heavy Rain 65 18.3 62 16.7 90 90 undefined N/A 30.36 1028 2 2 0.18 4.57
9:41 am 09:41 Cloudy with Heavy Rain 64 17.8 61 16.1 90 90 WNW 9 15 30.39 1029 1 1 0.28 7.11
9:47 am 09:47 Cloudy with Nearby Thunderstorms 64 18 61 16 88 88 W 14 22 30.39 1029 1 2 0.30 7.62
9:51 am 09:51 Cloudy with Nearby Thunderstorms 64 18 61 16 88 88 W 15 24 30.39 1029 3 5 0.30 7.62
9:53 am 09:53 Cloudy with Nearby Thunderstorms 64 17.8 59 15 84 84 W 15 24 30.39 1029 4 6 0.30 7.62
9:59 am 09:59 Cloudy with Rain 64 17.8 59 15 84 84 W 10 17 30.39 1029 5 8 0.01 0.25
10:06 am 10:06 Cloudy with Nearby Thunderstorms 63 17.2 60 15.6 90 90 W 5 7 30.39 1029 3 4 0.03 0.76
10:17 am 10:17 Cloudy with Light Rain 64 17.8 60 15.6 87 87 WSW 3 6 30.39 1029 4 6 0.05 1.27
10:53 am 10:53 Mostly Cloudy 65 18.3 62 16.7 90 90 SSE 6 9 30.37 1028 10 16 0.09 2.29
11:53 am 11:53 Mostly Cloudy 67 19.4 62 16.7 84 84 S 6 9 30.36 1028 10 16 0.00 0.00
12:53 pm 12:53 Cloudy 69 20.6 63 17.2 81 81 SW 6 9 30.35 1028 10 16 0.00 0.03
1:53 pm 13:53 Cloudy with Light Rain 69 20.6 62 16.7 78 78 SW 6 9 30.32 1027 10 16 0.00 0.03
2:53 pm 14:53 Partly Cloudy 71 21.7 63 17.2 76 76 S 7 11 30.28 1025 10 16 0.00 0.03
3:53 pm 15:53 Sunny 72 22.2 60 15.6 66 66 SSW 5 7 30.27 1025 10 16 0.00 0.00
4:53 pm 16:53 Sunny 72 22.2 61 16.1 68 68 SE 3 6 30.27 1025 10 16 0.00 0.00
5:53 pm 17:53 Clear 67 19.4 60 15.6 79 79 SE 3 6 30.27 1025 10 16 0.00 0.00
6:53 pm 18:53 Clear 65 18.3 60 15.6 84 84 E 5 7 30.28 1025 10 16 0.00 0.00
7:53 pm 19:53 Clear 65 18.3 60 15.6 84 84 ESE 5 7 30.29 1026 10 16 0.00 0.00
8:53 pm 20:53 Clear 63 17.2 59 15 87 87 SE 6 9 30.29 1026 10 16 0.00 0.00
9:53 pm 21:53 Clear 66 18.9 59 15 78 78 SE 7 11 30.29 1026 10 16 0.00 0.00
10:53 pm 22:53 Clear 68 20 60 15.6 76 76 S 8 13 30.27 1025 10 16 0.00 0.00
11:53 pm 23:53 Clear 68 20 59 15 73 73 S 7 11 30.27 1025 10 16 0.00 0.00

Powered by AerisWeather